Preview of NWS' New Version of Forecast
This preview is not operational and should not be used for support decisions.

Regional Weather Roundup (RWR)

Issued by State College, PA (CTP)

                            
000
ASUS41 KCTP 200710
RWRCTP

REGIONAL WEATHER ROUNDUP
NATIONAL WEATHER SERVICE STATE COLLEGE PA
300 AM EDT MON MAY 20 2019

Note: "fair" indicates few or no clouds below 12,000 feet with no 
significant weather and/or obstructions to visibility.

* = STATION THAT DOES NOT REPORT PRECIPITATION /E.G. RAIN...SNOW...ETC/
    THUNDER OR FOG.

PAZ002>004-007>009-013>016-020>023-029>032-200800-
WESTERN PENNSYLVANIA
  
CITY           SKY/WX    TMP DP  RH WIND       PRES   REMARKS
ERIE           CLOUDY    68  60  75 SW10      29.74R                  
MEADVILLE      LGT RAIN  63  59  87 SW12G18   29.79R                  
FRANKLIN*      FAIR      62  59  90 SW13      29.82R                  
NEW CASTLE     PTSUNNY   64  61  90 VRB5      29.81F                  
BEAVER COUNTY  NOT AVBL                                               
BUTLER*        FAIR      63  60  90 SW12      29.84S                  
PITTSBURGH INT MOCLDY    65  60  84 SW12      29.84S                  
PITTSBURGH     FAIR      65  60  84 SW10      29.85F                  
INDIANA*       CLOUDY    64  63  94 S7        29.90F                  
LATROBE        MOCLDY    64  64 100 S7        29.88S                  
WASHINGTON CO* FAIR      65  62  90 SW9       29.89S                  
$$

PAZ004>006-010>012-017>019-024>028-033>037-041-042-045-046-049>053-200800-
CENTRAL PENNSYLVANIA
  
CITY           SKY/WX    TMP DP  RH WIND       PRES   REMARKS
BRADFORD       CLOUDY    60  59  96 VRB6      29.82F                  
DUBOIS         CLOUDY    61  57  87 S8        29.85F                  
CLEARFIELD     LGT RAIN  63  60  90 S6        29.88S                  
JOHNSTOWN      LGT RAIN  63  59  87 SW7       29.91F                  
ALTOONA        LGT RAIN  66  63  90 VRB6      29.90R                  
STATE COLLEGE  CLOUDY    65  65  98 CALM      29.87S                  
WILLIAMSPORT   FAIR      65  64  97 CALM      29.82S                  
SELINSGROVE    NOT AVBL                                               
FT INDIANTOWN  FAIR      64  64  98 CALM      29.85F FOG              
CAPITAL CITY   FAIR      68  65  90 CALM      29.84F FOG              
HARRISBURG     MOCLDY    68  66  93 E3        29.84F                  
YORK           MOCLDY    68  66  93 SW5       29.85F                  
$$

PAZ038>040-043-044-047-048-054-055-060>062-067>071-200800-
EASTERN PENNSYLVANIA
  
CITY           SKY/WX    TMP DP  RH WIND       PRES   REMARKS
SCRANTON       FAIR      68  64  87 S6        29.84F                  
MOUNT POCONO   CLOUDY    63  63 100 VRB7      29.89F                  
ALLENTOWN      MOCLDY    70  65  84 SE7       29.86F                  
QUAKERTOWN*    MOSUNNY   66  68 100 SE5       29.89F                  
READING        FAIR      68  68 100 S8        29.84F                  
LANCASTER      LGT RAIN  70  69  97 E5        29.85F                  
COATESVILLE    FAIR      72  66  83 CALM      29.90F                  
POTTSTOWN      FAIR      66  66 100 VRB3      29.89F                  
BLUE BELL      MOCLDY    70  68  94 CALM      29.90S                  
DOYLESTOWN     MOCLDY    67  64  90 CALM      29.89F                  
WILLOW GROVE   NOT AVBL                                               
NORTH PHILA    FAIR      74  64  71 VRB3      29.89F                  
PHILADELPHIA   MOCLDY    72  64  76 S5        29.88F                  
$$